Lancaster, PA

8:38 AM EDT on September 21, 2017 (GMT -0400)
Lancaster

Weather History for KLNS - March, 2014

Change the Weather History Date:

Sunday, March 9, 2014

  Actual Average Record
Temperature  
Mean Temperature 36 °F -  
Max Temperature 39 °F 52 °F 78 °F (2016)
Min Temperature 33 °F 29 °F 13 °F (1989)
Degree Days  
Heating Degree Days 29    
Moisture  
Dew Point 24 °F    
Average Humidity 62    
Maximum Humidity 79    
Minimum Humidity 43    
Precipitation  
Precipitation 0.00 in - - ()
Sea Level Pressure  
Sea Level Pressure 30.01 in    
Wind  
Wind Speed 9 mph (WNW)    
Max Wind Speed 20 mph    
Max Gust Speed 24 mph    
Visibility 9 miles    
Events      
Averages and records for this station are not official NWS values.
T = Trace of Precipitation, MM = Missing Value Source: NWS Daily Summary

Daily Weather History Graph

Daily Weather History Graph

Search for Another Location

Airport or City:

Trip Planner

Search our weather history database for the weather conditions in past years. The results will help you decide how hot, cold, wet, or windy it might be!

Date:

Astronomy

Mar. 09, 2014 Rise Set
Actual Time 7:26 AM EDT 7:05 PM EDT
Civil Twilight 6:59 AM EDT 7:32 PM EDT
Nautical Twilight 6:27 AM EDT 8:04 PM EDT
Astronomical Twilight 5:56 AM EDT 8:35 PM EDT
Moon 12:56 PM EDT (3/9) 3:50 AM EDT (3/9)
Length of Visible Light 12h 33m
Length of Day
11h 39m
First Quarter, 61% of the Moon is Illuminated
Mar 9
First Quarter
Mar 16
Full
Mar 23
Last Quarter
Mar 30
New
Apr 7
First Quarter

Hourly Weather History & Observations

Time (EDT) Temp. Windchill Dew Point Humidity Pressure Visibility Wind Dir Wind Speed Gust Speed Precip Events Conditions
12:53 AM 39.9 °F 35.1 °F 32.0 °F 73% 29.93 in 6.0 mi West 6.9 mph - N/A   Haze
1:53 AM 37.9 °F 32.1 °F 30.9 °F 76% 29.93 in 6.0 mi WNW 8.1 mph - N/A   Haze
3:17 AM 39.0 °F 32.8 °F 32.0 °F 76% 29.93 in 6.0 mi West 9.2 mph - 0.00 in   Haze
3:42 AM 37.9 °F 31.5 °F 32.0 °F 79% 29.93 in 6.0 mi WNW 9.2 mph - 0.00 in   Haze
3:53 AM 37.9 °F 31.5 °F 30.9 °F 76% 29.94 in 6.0 mi WNW 9.2 mph - 0.00 in   Haze
4:53 AM 37.0 °F 30.4 °F 30.9 °F 79% 29.95 in 7.0 mi WNW 9.2 mph - N/A   Overcast
5:22 AM 36.0 °F 29.0 °F 30.0 °F 79% 29.95 in 7.0 mi WNW 9.2 mph - N/A   Mostly Cloudy
5:48 AM 35.6 °F 29.9 °F 28.4 °F 75% 29.96 in 8.0 mi NW 6.9 mph - N/A   Overcast
5:53 AM 36.0 °F 30.3 °F 28.9 °F 76% 29.96 in 8.0 mi NW 6.9 mph - N/A   Overcast
6:32 AM 36.0 °F 28.5 °F 28.0 °F 73% 29.98 in 10.0 mi NW 10.4 mph - N/A   Overcast
6:53 AM 36.0 °F 28.0 °F 28.0 °F 73% 30.00 in 10.0 mi NW 11.5 mph - N/A   Overcast
7:41 AM 35.1 °F 27.9 °F 27.0 °F 72% 30.01 in 9.0 mi NW 9.2 mph - N/A   Overcast
7:53 AM 35.1 °F 27.9 °F 26.1 °F 70% 30.02 in 9.0 mi NW 9.2 mph - N/A   Overcast
8:28 AM 35.1 °F 27.9 °F 26.1 °F 70% 30.03 in 7.0 mi NW 9.2 mph - N/A   Overcast
8:53 AM 34.0 °F 25.5 °F 21.9 °F 61% 30.05 in 9.0 mi NW 11.5 mph - N/A   Partly Cloudy
9:53 AM 35.1 °F 25.2 °F 21.9 °F 59% 30.08 in 10.0 mi NW 16.1 mph - N/A   Clear
10:53 AM 35.1 °F 25.9 °F 21.0 °F 57% 30.09 in 10.0 mi NNW 13.8 mph - N/A   Clear
11:53 AM 36.0 °F 25.3 °F 19.9 °F 52% 30.09 in 10.0 mi NW 19.6 mph 24.2 mph N/A   Clear
12:53 PM 37.0 °F 28.5 °F 17.1 °F 44% 30.10 in 10.0 mi NNW 13.8 mph - N/A   Clear
1:53 PM 37.9 °F 29.2 °F 19.0 °F 47% 30.08 in 10.0 mi WNW 15.0 mph 23.0 mph N/A   Clear
2:53 PM 37.9 °F 28.2 °F 17.1 °F 43% 30.05 in 10.0 mi West 18.4 mph - N/A   Clear
3:53 PM 37.9 °F 29.6 °F 19.0 °F 47% 30.03 in 10.0 mi West 13.8 mph - N/A   Clear
4:53 PM 39.0 °F 30.6 °F 18.0 °F 43% 30.02 in 10.0 mi West 15.0 mph - N/A   Clear
5:53 PM 37.9 °F 30.5 °F 18.0 °F 45% 30.01 in 10.0 mi WNW 11.5 mph - N/A   Clear
6:53 PM 36.0 °F 29.0 °F 19.0 °F 50% 30.02 in 10.0 mi WNW 9.2 mph - N/A   Clear
7:53 PM 35.1 °F 31.0 °F 18.0 °F 50% 30.04 in 10.0 mi West 4.6 mph - N/A   Clear
8:53 PM 35.1 °F 31.0 °F 18.0 °F 50% 30.04 in 10.0 mi WNW 4.6 mph - N/A   Clear
10:53 PM 33.1 °F - 19.0 °F 56% 30.02 in 10.0 mi Calm Calm - N/A   Clear
11:53 PM 34.0 °F 31.0 °F 18.0 °F 52% 29.98 in 10.0 mi WSW 3.5 mph - N/A   Clear
12:53 AM 33.1 °F - 21.0 °F 61% 29.96 in 10.0 mi Calm Calm - N/A   Scattered Clouds